[[{"header":{"parameterUnit":"m.s-1","parameterCategory":2,"la1":30.2991,"la2":30.254,"lo1":-89.0895,"lo2":-89.0444,"dy":0.0017,"dx":0.0017,"nx":28,"ny":28,"refTime":"2025-12-22T03:00:00:Z","depth":"0","parameterNumber":2,"parameterNumberName":"U-component_of_CURRENTS"},"data":[0,0,0,0,0,0,0,0,0,0,0,0,0,0,0,0,0,0,0,0,0,0,0,0,0,0,0,0,0,0,0,0,0,0,0,0,0,0,0,0,0,0,0,0,0,0,0,0,0,0,0,0,0,0,0,0,0,0,0.2449,0.2449,0,0.2388,0.2387,0.2387,0.2335,0.2334,0.2334,0.2333,0.2263,0.2262,0.2261,0,0,0,0,0,0,0,0,0,0,0,0,0,0.2566,0.2564,0.2449,0.2449,0.2448,0.2388,0.2387,0.2386,0.2335,0.2334,0.2334,0.2333,0.2264,0.2262,0.2261,0,0,0,0,0,0,0,0,0,0,0,0,0,0.2511,0.2563,0.245,0.2415,0.2412,0.2388,0.2387,0.2386,0.2335,0.2334,0.2334,0.2333,0.2264,0.2262,0.226,0.2263,0,0,0.2254,0.2253,0,0,0,0,0,0,0,0,0.2514,0.2506,0.2421,0.2418,0.2414,0.2369,0.2403,0.2345,0.2335,0.2364,0.2333,0.2332,0.2299,0.2294,0.2283,0.226,0.2257,0.2254,0.2253,0.2252,0.2251,0,0,0,0,0,0,0,0.2518,0.2509,0.2425,0.242,0.2416,0.2418,0.2409,0.2392,0.2336,0.2361,0.2357,0.2352,0.2296,0.2286,0.2281,0.2256,0.2254,0.2252,0.2251,0.225,0.2253,0.2254,0,0,0,0,0,0,0.2524,0.2512,0.2427,0.2423,0.2463,0.2417,0.2406,0.2384,0.2336,0.2328,0.2352,0.2349,0.2289,0.2284,0.2279,0.2301,0.2252,0.225,0.2249,0.2252,0.2253,0.2255,0,0,0,0,0,0,0.2527,0.2517,0.2429,0.2468,0.2457,0.2415,0.239,0.2383,0.237,0.233,0.2321,0.2348,0.2289,0.2282,0.2265,0.2297,0.2249,0.2247,0.225,0.2252,0.2254,0.2332,0,0,0,0,0,0,0.253,0.2517,0.251,0.2467,0.2455,0.2413,0.2391,0.2382,0.2368,0.2364,0.2323,0.2316,0.2288,0.2269,0.2263,0.2293,0.2245,0.2248,0.2251,0.2253,0.2327,0.2336,0.2343,0,0,0,0,0,0.2534,0.2522,0.2509,0.2499,0.2442,0.2413,0.2407,0.2375,0.2369,0.2362,0.234,0.2317,0.2281,0.2268,0.2261,0.2291,0.2247,0.225,0.2253,0.2324,0.2334,0.2343,0,0,0,0,0,0,0.2571,0.2515,0.2499,0.2471,0.2445,0.2404,0.2401,0.2382,0.236,0.2361,0.2323,0.2314,0.2319,0.2292,0.2279,0.2301,0.2265,0.2267,0.2321,0.2331,0.2339,0.2359,0.2244,0,0,0,0,0,0.2576,0.2552,0.2505,0.2488,0.2476,0.2443,0.2431,0.241,0.2383,0.2372,0.2344,0.2327,0.2328,0.2317,0.2305,0.2307,0.2339,0.2326,0.2334,0.2341,0.2355,0.2457,0.2477,0.2264,0.2264,0.2264,0,0,0.2588,0.2556,0.2542,0.2495,0.2476,0.2465,0.2433,0.2417,0.2416,0.237,0.2362,0.2353,0.2336,0.2345,0.2345,0.2323,0.2415,0.2345,0.2351,0.2361,0.2463,0.2484,0.2503,0.2266,0.2266,0.2266,0,0,0.2601,0.2571,0.2555,0.2537,0.2507,0.2488,0.2486,0.2447,0.2436,0.2425,0.2411,0.2422,0.239,0.2401,0.2401,0.2447,0.246,0.2441,0.2491,0.2591,0.261,0.2627,0.2686,0.2708,0.2439,0.2439,0.2439,0,0.2624,0.2587,0.2551,0.2539,0.2536,0.2502,0.2502,0.2488,0.245,0.2464,0.2429,0.245,0.2426,0.2478,0.2487,0.2468,0.2515,0.2455,0.2605,0.2622,0.2639,0.2695,0.2718,0.2443,0.2443,0.2442,0.2442,0,0.2622,0.2601,0.2597,0.2568,0.2567,0.2559,0.2541,0.2541,0.2529,0.2521,0.2557,0.2536,0.2555,0.2552,0.2525,0.263,0.2622,0.2611,0.2586,0.2666,0.2719,0.2742,0.2449,0.2448,0.2446,0.2445,0,0,0.2648,0.2603,0.2602,0.2598,0.2583,0.2579,0.2601,0.2611,0.2644,0.2621,0.2671,0.2674,0.2676,0.2678,0.2666,0.2732,0.2871,0.2718,0.2721,0.2785,0.3082,0.2939,0.2949,0.2901,0.2905,0.2909,0.307,0,0.2658,0.2638,0.2624,0.2631,0.2622,0.2628,0.2657,0.2675,0.2684,0.272,0.2735,0.2767,0.2721,0.2741,0.2807,0.2859,0.2937,0.2827,0.2986,0.299,0.2863,0.2973,0.2766,0.288,0.3092,0.3096,0.3098,0,0.2655,0.2642,0.2641,0.2659,0.2663,0.2676,0.2739,0.276,0.2817,0.2829,0.2878,0.2882,0.2964,0.2913,0.3072,0.301,0.3058,0.3091,0.3099,0.2956,0.2891,0.2836,0.2914,0.2812,0.3133,0.3131,0.3128,0,0.2666,0.2659,0.2661,0.2662,0.2677,0.2707,0.2736,0.2796,0.2833,0.2908,0.2952,0.3034,0.3091,0.3176,0.3212,0.3174,0.3383,0.3342,0.3264,0.3253,0.31,0.3066,0.3104,0.3487,0.3487,0.3486,0.3486,0,0.2664,0.2662,0.2663,0.2657,0.2696,0.2723,0.2786,0.2825,0.2904,0.2962,0.3013,0.3082,0.317,0.3267,0.329,0.3341,0.3459,0.3301,0.3303,0.3114,0.3082,0.3001,0.2974,0.3492,0.3491,0.349,0.3489,0,0.2648,0.2642,0.2643,0.267,0.2685,0.2716,0.279,0.2843,0.2925,0.3009,0.3041,0.3169,0.3283,0.3341,0.3485,0.3439,0.3376,0.3485,0.3226,0.3191,0.2955,0.2938,0.2903,0.2809,0.3425,0.3423,0.3421,0,0.2627,0.2623,0.2645,0.266,0.2664,0.2713,0.2757,0.2833,0.2883,0.3048,0.3089,0.3236,0.3302,0.3438,0.3373,0.339,0.3323,0.322,0.3092,0.2935,0.2922,0.2827,0.2744,0.2932,0.2926,0.2921,0.2917,0,0.2603,0.2613,0.2621,0.2646,0.2677,0.2708,0.2765,0.28,0.2905,0.2986,0.3102,0.318,0.326,0.3171,0.317,0.3151,0.3004,0.3117,0.3057,0.2623,0.2427,0.2336,0.2815,0.2875,0.2879,0.2882,0.2885,0.2886,0.2597,0.2599,0.262,0.2639,0.2671,0.2687,0.2685,0.2748,0.281,0.2867,0.3004,0.3025,0.2976,0.2915,0.289,0.2643,0.2705,0.2518,0.2543,0.2485,0.2286,0.2636,0.262,0.2622,0.2624,0.2626,0.2628,0,0.2585,0.2593,0.2618,0.2623,0.2628,0.2653,0.268,0.2653,0.267,0.2716,0.276,0.2634,0.2526,0.2465,0.2226,0.209,0.2002,0.203,0.1875,0.1848,0.2252,0.2116,0.1864,0.1864,0.1864,0.1864,0.1864,0.1864,0.2583,0.2587,0.2591,0.2575,0.2574,0.2512,0.2497,0.2464,0.2452,0.2346,0.2231,0.2213,0.2165,0.1999,0.1783,0.1722,0.16,0.147,0.155,0.1844,0.1891,0.1936,0.1801,0.1488,0.1487,0.1,0.0996,0.0994]},{"header":{"parameterUnit":"m.s-1","parameterCategory":2,"la1":30.2991,"la2":30.254,"lo1":-89.0895,"lo2":-89.0444,"dy":0.0017,"dx":0.0017,"nx":28,"ny":28,"refTime":"2025-12-22T03:00:00:Z","depth":"0","parameterNumber":3,"parameterNumberName":"V-component_of_CURRENTS"},"data":[0,0,0,0,0,0,0,0,0,0,0,0,0,0,0,0,0,0,0,0,0,0,0,0,0,0,0,0,0,0,0,0,0,0,0,0,0,0,0,0,0,0,0,0,0,0,0,0,0,0,0,0,0,0,0,0,0,0,0.0214,0.0213,0,0.0145,0.0144,0.0143,0.0095,0.0094,0.0094,0.0094,0.0039,0.0038,0.0036,0,0,0,0,0,0,0,0,0,0,0,0,0,0.0248,0.0248,0.0214,0.0213,0.0212,0.0145,0.0144,0.0143,0.0095,0.0094,0.0094,0.0094,0.0039,0.0038,0.0036,0,0,0,0,0,0,0,0,0,0,0,0,0,0.0211,0.0248,0.0214,0.0181,0.0177,0.0145,0.0144,0.0143,0.0095,0.0094,0.0094,0.0094,0.004,0.0038,0.0036,0.0033,0,0,0.003,0.003,0,0,0,0,0,0,0,0,0.0213,0.0209,0.0187,0.0183,0.0179,0.0129,0.0136,0.0107,0.0095,0.0125,0.0094,0.0093,0.0071,0.0067,0.0053,0.003,0.0028,0.003,0.0029,0.0028,0.0028,0,0,0,0,0,0,0,0.0216,0.0212,0.0185,0.0186,0.0181,0.0151,0.0145,0.013,0.0101,0.0122,0.0119,0.0113,0.0069,0.0055,0.0051,0.0027,0.003,0.0029,0.0028,0.0027,-0.0001,-0.0001,0,0,0,0,0,0,0.023,0.0215,0.0188,0.0183,0.0197,0.0151,0.0145,0.0145,0.01,0.0093,0.0114,0.0111,0.0058,0.0053,0.0049,0.0062,0.0028,0.0027,0.0026,-0.0002,-0.0001,-0.0001,0,0,0,0,0,0,0.0231,0.0228,0.019,0.0198,0.0191,0.0151,0.0151,0.0143,0.013,0.0094,0.0087,0.0109,0.0058,0.0052,0.0035,0.0059,0.0026,0.0024,-0.0002,-0.0001,-0.0001,0.0076,0,0,0,0,0,0,0.0232,0.0229,0.0231,0.0199,0.0191,0.018,0.0151,0.0142,0.0128,0.0124,0.0087,0.0081,0.0057,0.0038,0.0033,0.0056,0.0023,-0.0002,-0.0002,-0.0001,0.0073,0.0079,0.0085,0,0,0,0,0,0.0234,0.0245,0.0232,0.0228,0.0196,0.0181,0.0174,0.0143,0.0128,0.0128,0.0098,0.0083,0.0039,0.0036,0.0031,0.0054,-0.0003,-0.0002,-0.0001,0.0071,0.0078,0.0084,0,0,0,0,0,0,0.0258,0.024,0.0225,0.0229,0.0209,0.0173,0.0168,0.0149,0.0124,0.0117,0.0084,0.0076,0.0071,0.0048,0.0046,0.0046,0.0017,0.0017,0.0074,0.008,0.0086,0.0117,0.0021,0,0,0,0,0,0.0266,0.0271,0.0244,0.0246,0.0238,0.0204,0.0192,0.0171,0.0146,0.0134,0.0113,0.0087,0.007,0.0063,0.0041,0.0042,0.0048,0.0053,0.0058,0.0064,0.0084,0.0113,0.0124,0.0002,0.0002,0.0002,0,0,0.0273,0.0266,0.0266,0.0252,0.0231,0.0232,0.0196,0.0182,0.019,0.0133,0.0138,0.0105,0.0072,0.0071,0.0067,0.0056,0.01,0.0065,0.0069,0.0087,0.0115,0.0128,0.0139,0.0002,0.0002,0.0002,0,0,0.0305,0.0287,0.0305,0.0295,0.0274,0.025,0.0251,0.0222,0.0216,0.0207,0.0173,0.0158,0.0128,0.0118,0.0106,0.0131,0.0126,0.0119,0.018,0.0208,0.0219,0.0229,0.0254,0.0265,0.0127,0.0127,0.0127,0,0.0313,0.0331,0.0306,0.0323,0.0319,0.0266,0.0282,0.027,0.0242,0.0252,0.0218,0.0194,0.0156,0.0177,0.0174,0.0149,0.0161,0.0159,0.0219,0.0229,0.0238,0.0261,0.0272,0.0131,0.013,0.013,0.0129,0,0.0357,0.0369,0.0378,0.0382,0.0378,0.0376,0.0359,0.0357,0.0333,0.0326,0.0336,0.0286,0.028,0.0259,0.0218,0.0264,0.0251,0.0223,0.021,0.0256,0.0276,0.0287,0.0136,0.0135,0.0134,0.0133,0,0,0.0375,0.0403,0.0405,0.0427,0.0406,0.0413,0.0427,0.0435,0.0467,0.0433,0.048,0.043,0.041,0.0395,0.0353,0.0363,0.0417,0.0321,0.0321,0.0361,0.0487,0.0431,0.0437,0.0403,0.0405,0.0407,0.0477,0,0.0409,0.0463,0.0463,0.0505,0.0526,0.0499,0.0532,0.0537,0.0527,0.056,0.0526,0.0544,0.0464,0.0465,0.0464,0.043,0.0449,0.0401,0.0424,0.0425,0.0382,0.0449,0.0405,0.046,0.0487,0.0489,0.049,0,0.0449,0.048,0.0534,0.0588,0.0596,0.0618,0.0655,0.068,0.0706,0.0709,0.0715,0.0687,0.0696,0.0617,0.0616,0.0592,0.0552,0.0519,0.052,0.0453,0.039,0.0416,0.0478,0.0405,0.0507,0.0506,0.0505,0,0.0482,0.0532,0.0579,0.059,0.0637,0.067,0.0696,0.0728,0.0778,0.0813,0.0856,0.0844,0.0873,0.0815,0.0729,0.0685,0.073,0.0662,0.0583,0.0578,0.0538,0.0526,0.0547,0.0681,0.068,0.068,0.068,0,0.052,0.056,0.0603,0.0634,0.0708,0.0728,0.0812,0.0838,0.0902,0.0992,0.095,0.1029,0.0928,0.0924,0.0809,0.0744,0.0802,0.0621,0.0603,0.056,0.055,0.0479,0.0428,0.0683,0.0682,0.0682,0.0681,0,0.0554,0.0577,0.0641,0.0703,0.073,0.0787,0.0887,0.0952,0.1013,0.113,0.1155,0.1203,0.1211,0.1092,0.1025,0.0879,0.0726,0.0751,0.0701,0.0675,0.0485,0.0439,0.0426,0.0357,0.0672,0.0672,0.0671,0,0.0579,0.0613,0.0692,0.0736,0.0767,0.0851,0.0917,0.0994,0.1073,0.1248,0.1321,0.1382,0.1443,0.1321,0.106,0.0869,0.0769,0.0696,0.0586,0.0498,0.0435,0.0387,0.0327,0.0569,0.0568,0.0567,0.0566,0,0.0622,0.0645,0.0696,0.0785,0.0856,0.0946,0.1052,0.1133,0.1254,0.1379,0.1563,0.164,0.1539,0.1347,0.1068,0.0908,0.0604,0.0663,0.0601,0.0388,0.0314,0.0231,0.0499,0.0555,0.0556,0.0557,0.0557,0.0558,0.0649,0.0687,0.0752,0.0835,0.0918,0.103,0.1117,0.1249,0.141,0.1611,0.1704,0.1824,0.1569,0.1186,0.0985,0.0542,0.0542,0.0398,0.0363,0.0334,0.0226,0.0463,0.0469,0.047,0.047,0.0471,0.0471,0,0.0673,0.0721,0.0801,0.0903,0.0992,0.1037,0.1197,0.1298,0.1493,0.1678,0.1841,0.1736,0.1442,0.1096,0.0512,0.0272,0.0162,0.017,0.0107,0.0066,0.0314,0.0264,0.0192,0.0192,0.0193,0.0193,0.0193,0.0193,0.0693,0.0758,0.0797,0.0938,0.1015,0.1138,0.1229,0.1399,0.1544,0.1715,0.1741,0.1776,0.1494,0.0709,0.0196,0.0083,-0.0068,-0.0113,-0.0163,0.0018,0.0037,0.0055,-0.0001,-0.0128,-0.0128,-0.0422,-0.0425,-0.0427]}],[{"header":{"parameterUnit":"m.s-1","parameterCategory":2,"la1":30.2991,"la2":30.254,"lo1":-89.0895,"lo2":-89.0444,"dy":0.0017,"dx":0.0017,"nx":28,"ny":28,"refTime":"2025-12-22T03:00:00:Z","depth":"2","parameterNumber":2,"parameterNumberName":"U-component_of_CURRENTS"},"data":[0,0,0,0,0,0,0,0,0,0,0,0,0,0,0,0,0,0,0,0,0,0,0,0,0,0,0,0,0,0,0,0,0,0,0,0,0,0,0,0,0,0,0,0,0,0,0,0,0,0,0,0,0,0,0,0,0,0,0.1914,0.1914,0,0.1947,0.1948,0.1948,0.1963,0.1963,0.1963,0.1963,0.1995,0.1996,0.1997,0,0,0,0,0,0,0,0,0,0,0,0,0,0.1891,0.1891,0.1914,0.1914,0.1915,0.1947,0.1948,0.1948,0.1963,0.1963,0.1963,0.1963,0.1995,0.1996,0.1997,0,0,0,0,0,0,0,0,0,0,0,0,0,0.191,0.1891,0.1914,0.1926,0.1927,0.1947,0.1948,0.1948,0.1963,0.1963,0.1963,0.1963,0.1994,0.1995,0.1997,0.2007,0,0,0.2001,0.2001,0,0,0,0,0,0,0,0,0.1909,0.1911,0.1924,0.1925,0.1927,0.1951,0.1951,0.1968,0.1963,0.195,0.1963,0.1963,0.198,0.1982,0.1989,0.2008,0.2009,0.2001,0.2002,0.2002,0.2003,0,0,0,0,0,0,0,0.1908,0.191,0.1927,0.1924,0.1926,0.1939,0.1942,0.1955,0.1965,0.1951,0.1952,0.1956,0.1981,0.1988,0.199,0.201,0.2001,0.2002,0.2003,0.2003,0.2096,0.2097,0,0,0,0,0,0,0.1902,0.1909,0.1926,0.1928,0.1917,0.194,0.1942,0.1943,0.1965,0.1968,0.1956,0.1956,0.1986,0.1988,0.1991,0.2038,0.2002,0.2004,0.2004,0.2094,0.2096,0.2098,0,0,0,0,0,0,0.1901,0.1903,0.1925,0.1919,0.1923,0.194,0.1941,0.1944,0.1963,0.1968,0.1972,0.1973,0.1986,0.1989,0.2023,0.2038,0.2004,0.2005,0.2092,0.2095,0.2097,0.211,0,0,0,0,0,0,0.1901,0.1903,0.1917,0.1919,0.1923,0.1956,0.1941,0.1945,0.1964,0.1966,0.1984,0.1986,0.1986,0.2021,0.2024,0.2039,0.2006,0.209,0.2093,0.2096,0.2107,0.2112,0.2117,0,0,0,0,0,0.19,0.192,0.1917,0.192,0.1937,0.1957,0.1962,0.1973,0.1965,0.1987,0.1997,0.1986,0.2043,0.2023,0.2027,0.2042,0.2089,0.2092,0.2096,0.2105,0.2111,0.2117,0,0,0,0,0,0,0.1927,0.1923,0.1921,0.1941,0.1955,0.196,0.1982,0.1981,0.2005,0.201,0.2005,0.2009,0.2049,0.2049,0.2027,0.2082,0.2065,0.207,0.2071,0.2077,0.2081,0.2109,0.2008,0,0,0,0,0,0.1936,0.1937,0.1947,0.196,0.1973,0.1977,0.199,0.1998,0.2011,0.2022,0.2028,0.2043,0.2066,0.2073,0.2098,0.212,0.2152,0.2136,0.2141,0.2144,0.2172,0.2231,0.2243,0.211,0.211,0.211,0,0,0.194,0.1944,0.1942,0.1965,0.1974,0.1993,0.1986,0.2014,0.2033,0.2022,0.2055,0.2067,0.2081,0.2113,0.2129,0.2112,0.2199,0.2149,0.2152,0.2178,0.2236,0.2249,0.226,0.2113,0.2112,0.2112,0,0,0.1954,0.1965,0.1974,0.1989,0.2015,0.202,0.203,0.2047,0.2069,0.2098,0.2099,0.213,0.2146,0.2167,0.2176,0.2225,0.2231,0.2221,0.2253,0.2309,0.2321,0.2331,0.2385,0.24,0.2211,0.2211,0.2211,0,0.1964,0.1977,0.1984,0.2006,0.2018,0.203,0.2052,0.2077,0.2102,0.2127,0.2117,0.2175,0.218,0.2228,0.224,0.2237,0.2266,0.2222,0.2315,0.2326,0.2336,0.2389,0.2406,0.2212,0.2212,0.2212,0.2212,0,0.1985,0.2001,0.2013,0.203,0.205,0.2075,0.2102,0.2139,0.2154,0.2168,0.2233,0.2251,0.2284,0.2283,0.2272,0.2343,0.2341,0.232,0.2296,0.235,0.2403,0.242,0.2214,0.2213,0.2213,0.2213,0,0,0.1977,0.2019,0.2019,0.203,0.2068,0.2078,0.2135,0.2183,0.2222,0.2257,0.2311,0.2347,0.2359,0.2374,0.237,0.241,0.2495,0.239,0.2393,0.2437,0.2623,0.2492,0.2497,0.2481,0.2484,0.2486,0.2627,0,0.199,0.2024,0.2046,0.2067,0.2085,0.2123,0.2159,0.2207,0.226,0.2319,0.2365,0.2416,0.2391,0.2413,0.2451,0.2494,0.2542,0.246,0.2571,0.2575,0.2446,0.2513,0.2287,0.2381,0.2644,0.2647,0.2649,0,0.2,0.2019,0.2053,0.208,0.2092,0.2112,0.2185,0.2228,0.2324,0.2374,0.2448,0.2478,0.256,0.2526,0.2644,0.2589,0.2618,0.2644,0.2649,0.254,0.2476,0.2372,0.2403,0.2677,0.2675,0.2673,0.2671,0,0.1974,0.2016,0.204,0.2051,0.2093,0.2128,0.2159,0.2245,0.2301,0.2431,0.2485,0.2577,0.2627,0.2699,0.273,0.2706,0.2847,0.2819,0.2739,0.2731,0.2569,0.2539,0.2919,0.2919,0.2919,0.2918,0.2918,0,0.1972,0.198,0.2032,0.2038,0.2067,0.2108,0.2169,0.2235,0.2344,0.2408,0.2507,0.2579,0.2671,0.274,0.278,0.2803,0.2892,0.2776,0.2765,0.2564,0.2534,0.2811,0.2796,0.2924,0.2922,0.2921,0.2921,0,0.1932,0.197,0.199,0.2039,0.2056,0.2078,0.2161,0.2213,0.2326,0.243,0.2476,0.2605,0.2704,0.2771,0.2885,0.2842,0.2898,0.2879,0.2629,0.2585,0.2743,0.2728,0.2846,0.2842,0.2839,0.2837,0.2835,0,0.1918,0.1929,0.1975,0.1998,0.2024,0.2071,0.2103,0.2202,0.2268,0.2434,0.2476,0.2603,0.2652,0.2759,0.2752,0.2803,0.2866,0.2583,0.249,0.2762,0.274,0.2729,0.2719,0.2298,0.2292,0.2287,0.2283,0,0.1881,0.1903,0.1919,0.1963,0.1999,0.2029,0.209,0.214,0.226,0.2325,0.242,0.2474,0.2567,0.2489,0.2517,0.2517,0.2555,0.2478,0.2858,0.2322,0.2248,0.2225,0.2233,0.2237,0.2242,0.2245,0.2248,0.225,0.1855,0.186,0.1891,0.1919,0.1971,0.1998,0.199,0.205,0.2097,0.2157,0.2272,0.2261,0.2282,0.2217,0.2163,0.2133,0.2326,0.2209,0.2224,0.2245,0.2127,0.2048,0.1981,0.1983,0.1986,0.1988,0.199,0,0.1835,0.1832,0.185,0.1875,0.1892,0.1948,0.198,0.193,0.1928,0.1981,0.1998,0.1827,0.1769,0.1825,0.1706,0.169,0.1683,0.1615,0.1587,0.1634,0.1675,0.1526,0.1222,0.1219,0.1217,0.1215,0,0,0.1822,0.1811,0.1801,0.1778,0.1824,0.1795,0.18,0.1722,0.1709,0.1625,0.1589,0.169,0.1762,0.1467,0.1423,0.1303,0.146,0.1249,0.187,0.1885,0.1923,0.2024,0.1848,0,0,0,0,0]},{"header":{"parameterUnit":"m.s-1","parameterCategory":2,"la1":30.2991,"la2":30.254,"lo1":-89.0895,"lo2":-89.0444,"dy":0.0017,"dx":0.0017,"nx":28,"ny":28,"refTime":"2025-12-22T03:00:00:Z","depth":"2","parameterNumber":3,"parameterNumberName":"V-component_of_CURRENTS"},"data":[0,0,0,0,0,0,0,0,0,0,0,0,0,0,0,0,0,0,0,0,0,0,0,0,0,0,0,0,0,0,0,0,0,0,0,0,0,0,0,0,0,0,0,0,0,0,0,0,0,0,0,0,0,0,0,0,0,0,-0.0007,-0.0007,0,-0.0021,-0.0021,-0.0021,-0.0035,-0.0035,-0.0035,-0.0036,-0.006,-0.006,-0.0061,0,0,0,0,0,0,0,0,0,0,0,0,0,-0.0008,-0.0007,-0.0007,-0.0007,-0.0007,-0.0021,-0.0021,-0.0021,-0.0035,-0.0035,-0.0035,-0.0036,-0.006,-0.006,-0.0061,0,0,0,0,0,0,0,0,0,0,0,0,0,-0.0012,-0.0007,-0.0007,-0.0016,-0.0017,-0.0021,-0.0021,-0.0021,-0.0035,-0.0035,-0.0035,-0.0036,-0.006,-0.006,-0.0061,-0.0059,0,0,-0.0063,-0.0063,0,0,0,0,0,0,0,0,-0.0012,-0.0012,-0.0014,-0.0015,-0.0017,-0.0027,-0.003,-0.0034,-0.0035,-0.0028,-0.0036,-0.0036,-0.005,-0.0051,-0.0053,-0.006,-0.0061,-0.0063,-0.0064,-0.0064,-0.0064,0,0,0,0,0,0,0,-0.0012,-0.0012,-0.0012,-0.0015,-0.0016,-0.0025,-0.0026,-0.0031,-0.0037,-0.0028,-0.0029,-0.0032,-0.0051,-0.0052,-0.0053,-0.0061,-0.0063,-0.0064,-0.0064,-0.0064,-0.0063,-0.0063,0,0,0,0,0,0,-0.001,-0.0011,-0.0011,-0.0012,-0.0016,-0.0025,-0.0026,-0.0023,-0.0036,-0.0039,-0.0031,-0.0032,-0.0051,-0.0052,-0.0054,-0.0043,-0.0064,-0.0064,-0.0065,-0.0064,-0.0063,-0.0063,0,0,0,0,0,0,-0.001,-0.0009,-0.0011,-0.0013,-0.0014,-0.0024,-0.0021,-0.0023,-0.0025,-0.0039,-0.0041,-0.0032,-0.0051,-0.0053,-0.0053,-0.0044,-0.0065,-0.0065,-0.0064,-0.0063,-0.0063,-0.0025,0,0,0,0,0,0,-0.0009,-0.0009,-0.0008,-0.0013,-0.0014,-0.0007,-0.0021,-0.0023,-0.0026,-0.0027,-0.004,-0.0042,-0.0051,-0.0052,-0.0054,-0.0045,-0.0066,-0.0065,-0.0064,-0.0063,-0.0027,-0.0024,-0.002,0,0,0,0,0,-0.0009,-0.0005,-0.0008,-0.0008,-0.0012,-0.0007,-0.0008,-0.0016,-0.0026,-0.0021,-0.0029,-0.0042,-0.0048,-0.0052,-0.0054,-0.0046,-0.0065,-0.0064,-0.0063,-0.0029,-0.0024,-0.0021,0,0,0,0,0,0,-0.0009,-0.0007,-0.001,-0.0006,-0.0004,-0.0009,-0.0009,-0.0015,-0.0017,-0.002,-0.0035,-0.0038,-0.0034,-0.0045,-0.0049,-0.0043,-0.0059,-0.0059,-0.0032,-0.0028,-0.0025,-0.0011,-0.0066,0,0,0,0,0,-0.0008,-0.0001,-0.0001,0.0002,0.0003,-0.0002,-0.0004,-0.0006,-0.0009,-0.0011,-0.002,-0.0029,-0.0031,-0.0034,-0.0038,-0.0035,-0.0046,-0.0032,-0.0028,-0.0025,-0.0015,-0.0024,-0.0021,-0.0059,-0.0059,-0.0059,0,0,-0.0008,-0.0005,-0.0003,0.0003,0.0002,0.0013,-0.0004,0.0001,0.0012,-0.0013,-0.0005,-0.0017,-0.0027,-0.0021,-0.0021,-0.003,-0.0021,-0.0024,-0.0022,-0.0013,-0.0023,-0.0019,-0.0016,-0.0059,-0.0059,-0.0059,0,0,0.0002,0.0,0.0011,0.0017,0.0021,0.0022,0.0025,0.0024,0.0025,0.0032,0.0018,0.0015,0.0006,0.0005,0.0002,0.0022,-0.0002,0.0014,0.0042,0.0033,0.0037,0.0039,0.0027,0.0028,0.0015,0.0015,0.0015,0,0.0002,0.0019,0.0015,0.0028,0.0036,0.0029,0.0046,0.0049,0.0049,0.0057,0.004,0.0036,0.0023,0.0037,0.0041,0.003,0.0018,0.0028,0.0038,0.0041,0.0043,0.0029,0.003,0.0017,0.0016,0.0016,0.0016,0,0.0024,0.0037,0.0045,0.0063,0.007,0.0085,0.009,0.0104,0.01,0.0098,0.0108,0.0088,0.0087,0.0079,0.0065,0.0076,0.0059,0.0044,0.0029,0.0049,0.0033,0.0034,0.0019,0.0019,0.0018,0.0018,0,0,0.003,0.0057,0.006,0.008,0.0093,0.0105,0.0131,0.0155,0.0181,0.0164,0.0189,0.0171,0.0153,0.0149,0.0127,0.0117,0.0114,0.0087,0.0086,0.0077,0.009,0.0063,0.0061,0.0097,0.0098,0.0098,0.0072,0,0.0053,0.009,0.0095,0.0134,0.0156,0.0166,0.0191,0.0209,0.022,0.0241,0.0219,0.0229,0.0181,0.0185,0.0164,0.0138,0.0117,0.0122,0.007,0.0069,0.0045,0.0061,0.0094,0.0072,0.0072,0.0072,0.0072,0,0.0078,0.0103,0.0143,0.0185,0.0195,0.0214,0.0267,0.0289,0.0314,0.0325,0.0323,0.0303,0.0294,0.0247,0.0199,0.0203,0.0148,0.0115,0.0113,0.0078,0.0043,0.0052,0.0072,0.0072,0.0072,0.0072,0.0072,0,0.0096,0.0138,0.0175,0.0188,0.0229,0.0255,0.0278,0.0312,0.0353,0.038,0.0407,0.0379,0.0377,0.0313,0.0232,0.022,0.0171,0.0147,0.0067,0.0064,0.0078,0.0076,0.0102,0.0102,0.0102,0.0102,0.0103,0,0.0124,0.0155,0.0189,0.021,0.0265,0.0277,0.034,0.037,0.0419,0.0483,0.0443,0.0486,0.0393,0.035,0.0263,0.017,0.0191,0.008,0.006,0.0091,0.009,0.0079,0.0077,0.0101,0.0102,0.0102,0.0102,0,0.0142,0.0162,0.0211,0.0257,0.0276,0.0314,0.0388,0.0446,0.0476,0.0563,0.0578,0.0572,0.0531,0.0419,0.0326,0.0217,0.013,0.0082,0.012,0.0105,0.0021,0.0021,0.0007,0.0006,0.0005,0.0005,0.0004,0,0.0155,0.0182,0.0244,0.0283,0.0307,0.0367,0.0424,0.0476,0.0553,0.0631,0.0686,0.066,0.0664,0.0494,0.0334,0.0176,0.0135,0.0062,0.0042,0.0031,0.0013,0.0014,0.0015,0.0075,0.0074,0.0074,0.0074,0,0.0185,0.0205,0.0249,0.0329,0.0392,0.0473,0.0558,0.0628,0.0712,0.0782,0.0873,0.0873,0.0722,0.0582,0.0334,0.0223,0.0093,0.0055,0.005,0.0087,0.009,0.0073,0.0073,0.0074,0.0074,0.0074,0.0074,0.0074,0.0208,0.0246,0.0309,0.0389,0.0465,0.0579,0.0655,0.0771,0.0893,0.0999,0.0996,0.0992,0.0803,0.0512,0.0318,0.0106,0.0113,0.0017,0.0019,0.002,0.0027,0.0027,0.0001,0.0,-0.0,-0.0,-0.0001,0,0.0245,0.0296,0.037,0.0471,0.0566,0.0601,0.0751,0.0834,0.0991,0.107,0.1124,0.0939,0.0776,0.0559,0.0264,0.0064,0.0056,-0.0013,0.0029,0.0031,0.0032,0.004,0.0017,0.0016,0.0015,0.0015,0,0,0.0269,0.0345,0.039,0.0546,0.0619,0.0748,0.0835,0.0959,0.1044,0.1109,0.1109,0.1075,0.0834,0.0612,0.0365,0.0198,0.0151,0.0154,0.0163,0.0244,0.0248,0.0074,0.0091,0,0,0,0,0]}],[{"header":{"parameterUnit":"m.s-1","parameterCategory":2,"la1":30.2991,"la2":30.254,"lo1":-89.0895,"lo2":-89.0444,"dy":0.0017,"dx":0.0017,"nx":28,"ny":28,"refTime":"2025-12-22T03:00:00:Z","depth":"4","parameterNumber":2,"parameterNumberName":"U-component_of_CURRENTS"},"data":[0,0,0,0,0,0,0,0,0,0,0,0,0,0,0,0,0,0,0,0,0,0,0,0,0,0,0,0,0,0,0,0,0,0,0,0,0,0,0,0,0,0,0,0,0,0,0,0,0,0,0,0,0,0,0,0,0,0,0.1155,0.1155,0,0.1216,0.1217,0.1217,0.1266,0.1267,0.1268,0.1268,0.1336,0.1337,0.1339,0,0,0,0,0,0,0,0,0,0,0,0,0,0.1073,0.1074,0.1155,0.1156,0.1156,0.1216,0.1217,0.1217,0.1266,0.1267,0.1268,0.1268,0.1336,0.1337,0.1339,0,0,0,0,0,0,0,0,0,0,0,0,0,0.1118,0.1075,0.1155,0.1189,0.1193,0.1216,0.1217,0.1218,0.1266,0.1267,0.1268,0.1269,0.1335,0.1337,0.1339,0.1332,0,0,0.1345,0.1345,0,0,0,0,0,0,0,0,0.1115,0.112,0.1183,0.1187,0.1191,0.1236,0.1213,0.1257,0.1266,0.1237,0.1268,0.1269,0.1303,0.1308,0.1315,0.1335,0.1338,0.1345,0.1346,0.1347,0.1347,0,0,0,0,0,0,0,0.1112,0.1118,0.1178,0.1184,0.1189,0.1199,0.1207,0.1221,0.1263,0.1239,0.1243,0.1252,0.1306,0.1313,0.1317,0.1339,0.1345,0.1346,0.1348,0.1348,0.1447,0.1449,0,0,0,0,0,0,0.1107,0.1115,0.1176,0.118,0.1156,0.12,0.1208,0.1219,0.1263,0.1271,0.1251,0.1254,0.131,0.1315,0.132,0.1391,0.1347,0.1348,0.135,0.1446,0.1448,0.1449,0,0,0,0,0,0,0.1105,0.1111,0.1173,0.115,0.1158,0.1201,0.1213,0.122,0.1255,0.1272,0.128,0.1282,0.1311,0.1317,0.1361,0.1391,0.1349,0.1351,0.1444,0.1446,0.1448,0.1484,0,0,0,0,0,0,0.1102,0.111,0.1128,0.1149,0.116,0.1205,0.1212,0.1221,0.1258,0.1263,0.13,0.1306,0.1312,0.1359,0.1363,0.1393,0.1352,0.1442,0.1445,0.1448,0.1481,0.1488,0.1493,0,0,0,0,0,0.1099,0.1115,0.1128,0.1136,0.1179,0.1206,0.1212,0.1244,0.1259,0.1278,0.1308,0.1307,0.138,0.1361,0.1366,0.1398,0.1441,0.1444,0.1447,0.1479,0.1486,0.1493,0,0,0,0,0,0,0.1089,0.1122,0.1137,0.1164,0.1192,0.1215,0.1238,0.1257,0.1294,0.1307,0.1322,0.133,0.138,0.1385,0.1363,0.1436,0.1412,0.1416,0.1434,0.1441,0.1447,0.1454,0.1354,0,0,0,0,0,0.1094,0.1119,0.1147,0.1172,0.1186,0.1216,0.1236,0.1258,0.1287,0.1306,0.1335,0.1366,0.1392,0.1414,0.1436,0.1473,0.1481,0.1499,0.1505,0.151,0.1521,0.1557,0.1567,0.146,0.146,0.146,0,0,0.1096,0.112,0.1134,0.1172,0.1196,0.1222,0.1231,0.1268,0.1299,0.1306,0.1366,0.1387,0.1407,0.1451,0.1474,0.1463,0.1544,0.1514,0.1518,0.1526,0.1562,0.1572,0.1581,0.1463,0.1462,0.1462,0,0,0.1107,0.1135,0.1158,0.1183,0.1225,0.1243,0.1259,0.1299,0.133,0.138,0.1396,0.1439,0.1482,0.1505,0.1519,0.1571,0.1571,0.1582,0.1621,0.1656,0.1665,0.1673,0.169,0.17,0.1587,0.1587,0.1587,0,0.1113,0.1142,0.1169,0.1197,0.122,0.1255,0.1281,0.1315,0.1369,0.1396,0.1408,0.1489,0.1508,0.1559,0.1583,0.1585,0.16,0.1589,0.1663,0.1671,0.1678,0.1695,0.1704,0.1589,0.1589,0.1589,0.1589,0,0.1132,0.1165,0.1181,0.1227,0.1255,0.1285,0.1327,0.1368,0.141,0.1443,0.1515,0.1549,0.1598,0.1612,0.1617,0.1682,0.1673,0.1662,0.1641,0.1691,0.1705,0.1715,0.1592,0.1592,0.1591,0.159,0,0,0.1119,0.1182,0.119,0.1214,0.1274,0.1294,0.1351,0.1404,0.1447,0.1511,0.157,0.163,0.166,0.1679,0.1696,0.1733,0.1797,0.1729,0.173,0.174,0.1871,0.1742,0.174,0.1801,0.1803,0.1805,0.1857,0,0.1129,0.1176,0.1209,0.1256,0.128,0.1328,0.1375,0.1431,0.1488,0.1555,0.1609,0.1674,0.1682,0.1719,0.1758,0.1793,0.1825,0.1783,0.1827,0.1828,0.1703,0.1748,0.1811,0.1864,0.1866,0.1868,0.1869,0,0.1131,0.1165,0.121,0.1269,0.1285,0.1322,0.1397,0.1446,0.1538,0.1589,0.1666,0.1713,0.1797,0.1788,0.1879,0.1856,0.1873,0.1888,0.189,0.1765,0.1717,0.1807,0.1886,0.1885,0.1883,0.1882,0.1881,0,0.1093,0.116,0.1195,0.1217,0.1292,0.1327,0.1373,0.1459,0.1508,0.1623,0.1673,0.1771,0.1833,0.1883,0.193,0.1918,0.2008,0.1988,0.1883,0.1873,0.1957,0.1948,0.2041,0.2041,0.2041,0.204,0.204,0,0.1074,0.1104,0.1185,0.1202,0.1248,0.1312,0.1374,0.1436,0.1534,0.1588,0.1694,0.1749,0.1864,0.1925,0.1952,0.1946,0.2029,0.1898,0.1882,0.197,0.1962,0.1963,0.1954,0.2042,0.2042,0.2042,0.2041,0,0.102,0.1076,0.1117,0.1201,0.1231,0.1265,0.1363,0.1401,0.151,0.1587,0.163,0.1762,0.1844,0.1922,0.2005,0.1958,0.1973,0.1944,0.2035,0.2023,0.1809,0.1801,0.1835,0.1831,0.1828,0.1825,0.1823,0,0.0995,0.1013,0.1101,0.1123,0.1164,0.1229,0.1265,0.1379,0.1421,0.1571,0.1594,0.172,0.1793,0.181,0.19,0.1936,0.1912,0.1899,0.1853,0.1809,0.1791,0.1788,0.1785,0.1817,0.1816,0.1815,0.1814,0,0.0943,0.0983,0.1014,0.106,0.1102,0.1141,0.1209,0.1231,0.1354,0.1468,0.1528,0.1582,0.1663,0.1735,0.1774,0.1794,0.19,0.1863,0.1869,0.1826,0.1787,0.1773,0.1773,0.1803,0.1804,0.1805,0.1806,0,0.09,0.0904,0.095,0.0981,0.1025,0.1033,0.1084,0.1134,0.1195,0.1362,0.1378,0.1515,0.164,0.1661,0.1698,0.1711,0.1688,0.1626,0.1645,0.1659,0.1578,0.1502,0.1422,0,0,0,0,0,0.0855,0.0847,0.0865,0.0886,0.0923,0.0954,0.1031,0.1086,0.121,0.1212,0.1294,0.1364,0.1434,0.151,0.1491,0.1619,0.1689,0.1588,0.1626,0.1737,0.1751,0.1672,0,0,0,0,0,0,0.0818,0.0832,0.0834,0.0803,0.08,0.083,0.0874,0.0959,0.0973,0.1111,0.1164,0.1272,0.137,0.1435,0.1464,0.1485,0.1477,0.1678,0.1674,0.1729,0.1742,0.1753,0.1677,0,0,0,0,0]},{"header":{"parameterUnit":"m.s-1","parameterCategory":2,"la1":30.2991,"la2":30.254,"lo1":-89.0895,"lo2":-89.0444,"dy":0.0017,"dx":0.0017,"nx":28,"ny":28,"refTime":"2025-12-22T03:00:00:Z","depth":"4","parameterNumber":3,"parameterNumberName":"V-component_of_CURRENTS"},"data":[0,0,0,0,0,0,0,0,0,0,0,0,0,0,0,0,0,0,0,0,0,0,0,0,0,0,0,0,0,0,0,0,0,0,0,0,0,0,0,0,0,0,0,0,0,0,0,0,0,0,0,0,0,0,0,0,0,0,0.0038,0.0037,0,0.0025,0.0025,0.0025,0.0015,0.0014,0.0014,0.0014,-0.0007,-0.0008,-0.0008,0,0,0,0,0,0,0,0,0,0,0,0,0,0.0044,0.0044,0.0038,0.0037,0.0037,0.0025,0.0025,0.0025,0.0015,0.0014,0.0014,0.0014,-0.0007,-0.0008,-0.0008,0,0,0,0,0,0,0,0,0,0,0,0,0,0.0038,0.0044,0.0038,0.003,0.0029,0.0025,0.0025,0.0025,0.0015,0.0014,0.0014,0.0014,-0.0007,-0.0008,-0.0008,-0.0007,0,0,-0.001,-0.001,0,0,0,0,0,0,0,0,0.0038,0.0037,0.0032,0.0031,0.003,0.002,0.0019,0.0013,0.0015,0.0021,0.0014,0.0014,0.0001,-0.0,-0.0001,-0.0008,-0.0009,-0.001,-0.0011,-0.0011,-0.0011,0,0,0,0,0,0,0,0.0038,0.0038,0.0033,0.0031,0.003,0.0024,0.0023,0.0018,0.0013,0.002,0.002,0.0017,0.0,-0.0,-0.0002,-0.0009,-0.001,-0.0011,-0.0011,-0.0011,-0.0014,-0.0013,0,0,0,0,0,0,0.0039,0.0038,0.0034,0.0033,0.0032,0.0024,0.0023,0.0024,0.0013,0.0011,0.0017,0.0017,0.0001,-0.0001,-0.0003,0.0004,-0.0011,-0.0011,-0.0012,-0.0014,-0.0013,-0.0013,0,0,0,0,0,0,0.004,0.0039,0.0034,0.0034,0.0033,0.0024,0.0026,0.0024,0.0022,0.0011,0.0008,0.0016,0.0001,-0.0002,-0.0003,0.0003,-0.0012,-0.0012,-0.0014,-0.0014,-0.0013,0.0013,0,0,0,0,0,0,0.004,0.004,0.004,0.0035,0.0033,0.0035,0.0026,0.0024,0.002,0.0019,0.0009,0.0007,0.0,-0.0002,-0.0004,0.0002,-0.0013,-0.0015,-0.0014,-0.0013,0.0012,0.0014,0.0016,0,0,0,0,0,0.004,0.0043,0.0041,0.004,0.0035,0.0035,0.0034,0.0027,0.0021,0.0023,0.0017,0.0007,0.0001,-0.0002,-0.0004,0.0001,-0.0015,-0.0014,-0.0014,0.0011,0.0014,0.0016,0,0,0,0,0,0,0.0044,0.0042,0.0039,0.0041,0.0039,0.0033,0.0032,0.0028,0.0025,0.0023,0.0012,0.001,0.001,0.0002,-0.0,0.0002,-0.0009,-0.0009,0.001,0.0013,0.0015,0.0019,-0.0013,0,0,0,0,0,0.0046,0.0049,0.0045,0.0046,0.0046,0.0039,0.0037,0.0034,0.003,0.0028,0.0021,0.0015,0.0012,0.001,0.0005,0.0007,-0.0011,0.0009,0.0011,0.0013,0.0015,-0.0006,-0.0005,-0.0011,-0.0011,-0.0011,0,0,0.0047,0.0046,0.0047,0.0047,0.0044,0.005,0.0038,0.0037,0.0043,0.0026,0.0031,0.0022,0.0014,0.0018,0.0017,0.0011,0.0004,0.0014,0.0016,0.0017,-0.0005,-0.0005,-0.0004,-0.001,-0.001,-0.0011,0,0,0.0053,0.005,0.0056,0.0057,0.0055,0.0055,0.0055,0.0052,0.0052,0.0055,0.0045,0.004,0.0036,0.0032,0.003,0.0042,0.0018,0.004,0.0056,0.0036,0.0036,0.0036,0.0008,0.0006,0.0042,0.0042,0.0042,0,0.0053,0.0062,0.0057,0.0064,0.0068,0.0059,0.007,0.0069,0.0066,0.007,0.006,0.0053,0.0043,0.0048,0.0053,0.0047,0.0029,0.0046,0.0038,0.0038,0.0037,0.0009,0.0006,0.0043,0.0043,0.0043,0.0043,0,0.0065,0.0073,0.0076,0.0085,0.0089,0.0096,0.0097,0.0103,0.01,0.0097,0.0098,0.0082,0.0079,0.0074,0.0067,0.0064,0.0049,0.0043,0.0031,0.0039,0.0009,0.0006,0.0045,0.0045,0.0044,0.0044,0,0,0.0068,0.0083,0.0084,0.0098,0.0103,0.0112,0.0124,0.0136,0.0149,0.0134,0.0145,0.0131,0.0118,0.0114,0.01,0.0081,0.0058,0.0063,0.0061,0.0035,0.0007,0.0008,0.0004,0.005,0.005,0.005,-0.0015,0,0.0081,0.0103,0.0107,0.0133,0.0147,0.015,0.0167,0.0175,0.0176,0.0184,0.016,0.0162,0.0135,0.0135,0.011,0.0078,0.005,0.0076,0.0003,0.0,0.0,0.0,0.0048,-0.0018,-0.0019,-0.0019,-0.002,0,0.0095,0.011,0.0137,0.0169,0.0176,0.0192,0.0223,0.0238,0.0242,0.0243,0.023,0.0209,0.0185,0.0159,0.0092,0.011,0.0059,0.0024,0.002,0.0011,-0.0005,-0.0028,-0.0027,-0.0027,-0.0026,-0.0026,-0.0025,0,0.0107,0.0135,0.016,0.0169,0.0199,0.0219,0.0239,0.0255,0.0285,0.0279,0.0291,0.0249,0.0239,0.0169,0.0092,0.0092,0.001,0.0002,-0.005,-0.0051,-0.0046,-0.0045,-0.0055,-0.0055,-0.0055,-0.0055,-0.0055,0,0.0123,0.0145,0.0171,0.0186,0.0231,0.0242,0.0293,0.0305,0.0334,0.037,0.0324,0.0333,0.0241,0.0184,0.0102,0.0015,0.0014,-0.0049,-0.0065,-0.0034,-0.0031,-0.0049,-0.0048,-0.0057,-0.0057,-0.0056,-0.0056,0,0.0134,0.0146,0.0183,0.0221,0.0239,0.0273,0.0343,0.0385,0.0395,0.0439,0.044,0.0402,0.0328,0.0223,0.0111,0.0041,-0.0051,-0.0087,-0.0051,-0.0064,-0.0104,-0.0101,-0.0146,-0.0146,-0.0147,-0.0147,-0.0147,0,0.014,0.0158,0.0211,0.0246,0.0267,0.0324,0.0376,0.0415,0.0461,0.0483,0.0506,0.0448,0.0403,0.0246,0.0129,-0.0035,-0.0059,-0.0118,-0.0109,-0.0101,-0.0113,-0.0108,-0.0104,-0.0148,-0.0148,-0.0148,-0.0148,0,0.0159,0.0177,0.0212,0.0281,0.0337,0.0406,0.0474,0.0515,0.0559,0.0566,0.0564,0.048,0.0396,0.0263,0.0131,0.0013,-0.0084,-0.0123,-0.0123,-0.0114,-0.0104,-0.0114,-0.011,-0.0149,-0.0149,-0.0149,-0.0149,0,0.0178,0.0208,0.0257,0.032,0.039,0.0465,0.0502,0.0558,0.0602,0.0618,0.0614,0.0515,0.0458,0.0288,0.0169,0.0051,0.0023,-0.0023,-0.0028,-0.0029,0.0024,0.0055,0.0045,0,0,0,0,0,0.0198,0.0238,0.0297,0.0367,0.0436,0.0479,0.0561,0.0595,0.0631,0.0639,0.063,0.0549,0.0384,0.0314,0.0199,0.0156,-0.0004,0.0015,-0.0062,-0.0156,-0.0155,-0.0113,0,0,0,0,0,0,0.0216,0.0269,0.03,0.0393,0.0446,0.0531,0.0585,0.0614,0.062,0.0629,0.0548,0.0506,0.0349,0.0445,0.019,0.0156,0.0089,-0.0061,-0.0064,-0.0157,-0.0156,-0.0155,-0.0111,0,0,0,0,0]}]]